ONEWEB-0114 (47262 NORAD) Tracking and Keplerian Element Data

This shows tracking and keplerian element data for the satellite.

Feedback or suggestion? Click here.




ElementValue
Catalog47262
NameONEWEB-0114
Epoch Orbit180
Epoch Day20.91667824
Epoch Year2021
RAAN28.0441
Inclination87.3011
Eccentricity0.001039
Argument of Perigee137.6282
Mean Anonmoly285.3113
Mean Motion14.82640313
Decay Rate-0.01301885
L11 47262U 20100E 21020.91667824 -.01301885 00000-0 -17575+0 0 9994
L22 47262 87.3011 28.0441 0010390 137.6282 285.3113 14.82640313 1808

Live tracking and technical data element details for ONEWEB-0114 (NORAD 47262). ONEWEB-0114 can be tracked NOW for your location showing map with azimuth and elevation plus other details from your city location.

Track the satellite on the map from your city or location and see movement details for azimuth, elevation, latitude, longitude, range, height, and movement on the map or in text.







IsCatalogInMostPopularTable: catalog: 47262, numindb: 14
Update: records affected: 1



GetName: 47262 ONEWEB-0114

Hit Count: updated at: Sat, 23 Jan 2021 16:10:18 GMT